Location: Ch�ze
(42.9000°N, 0.0333°W)
Time: 19:35:51
(UTC+00:00)

Cosmos 2278 Rocket - Pass Details

Date: 24 January 2021
Orbit: 840 x 846 km, 71.0° (Epoch: 08 March)

Event Time Altitude Azimuth Distance (km) Brightness Sun altitude
Rises 19:00:27 0° 195° (SSW) 3,385 5.6 -21.5°
Reaches altitude 10° 19:02:53 10° 193° (SSW) 2,455 4.8 -21.9°
Maximum altitude 19:08:29 70° 111° (ESE) 898 2.1 -22.9°
Enters shadow 19:10:10 45° 44° (NE) 1,136 2.5 -23.2°
